Stuart, FL

8:06 PM EST on November 24, 2017 (GMT -0500)
Witham

Weather History for KSUA - February, 2013

Change the Weather History Date:

Saturday, February 2, 2013

  Actual Average Record
Temperature  
Mean Temperature 63 °F -  
Max Temperature 73 °F 75 °F 82 °F (2014)
Min Temperature 53 °F 56 °F 55 °F (2017)
Degree Days  
Heating Degree Days 2    
Growing Degree Days 13 (Base 50)    
Moisture  
Dew Point 43 °F    
Average Humidity 56    
Maximum Humidity 88    
Minimum Humidity 33    
Precipitation  
Precipitation 0.00 in - - ()
Sea Level Pressure  
Sea Level Pressure 30.22 in    
Wind  
Wind Speed 5 mph (NNW)    
Max Wind Speed 12 mph    
Max Gust Speed -    
Visibility 9 miles    
Events      
Averages and records for this station are not official NWS values.
T = Trace of Precipitation, MM = Missing Value Source: NWS Daily Summary

Daily Weather History Graph

Daily Weather History Graph

Search for Another Location

Airport or City:

Trip Planner

Search our weather history database for the weather conditions in past years. The results will help you decide how hot, cold, wet, or windy it might be!

Date:

Astronomy

Feb. 02, 2013 Rise Set
Actual Time 7:06 AM EST 6:03 PM EST
Civil Twilight 6:41 AM EST 6:27 PM EST
Nautical Twilight 6:13 AM EST 6:55 PM EST
Astronomical Twilight 5:46 AM EST 7:23 PM EST
Moon No Moon Rise 10:57 AM EST (2/2)
Length of Visible Light 11h 46m
Length of Day
10h 57m
Waning Gibbous, 60% of the Moon is Illuminated
Feb 2
Waning Gibbous
Feb 3
Last Quarter
Feb 10
New
Feb 17
First Quarter
Feb 25
Full

Hourly Weather History & Observations

Time (EST) Temp. Dew Point Humidity Pressure Visibility Wind Dir Wind Speed Gust Speed Precip Events Conditions
12:15 AM 55.4 °F 37.4 °F 51% 30.27 in 10.0 mi NNW 5.8 mph - N/A   Clear
12:35 AM 55.4 °F 35.6 °F 47% 30.27 in 10.0 mi NW 4.6 mph - N/A   Clear
12:55 AM 55.4 °F 35.6 °F 47% 30.26 in 10.0 mi NNW 5.8 mph - N/A   Clear
1:15 AM 55.4 °F 35.6 °F 47% 30.26 in 10.0 mi NNW 6.9 mph - N/A   Clear
1:35 AM 55.4 °F 35.6 °F 47% 30.26 in 10.0 mi NW 5.8 mph - N/A   Clear
1:55 AM 55.4 °F 32.0 °F 41% 30.26 in 10.0 mi NNW 6.9 mph - N/A   Clear
2:15 AM 55.4 °F 32.0 °F 41% 30.25 in 10.0 mi NW 5.8 mph - N/A   Clear
2:35 AM 55.4 °F 32.0 °F 41% 30.25 in 10.0 mi NW 5.8 mph - N/A   Clear
2:55 AM 55.4 °F 32.0 °F 41% 30.25 in 10.0 mi NNW 5.8 mph - N/A   Clear
3:15 AM 55.4 °F 32.0 °F 41% 30.25 in 10.0 mi NNW 5.8 mph - N/A   Clear
3:35 AM 55.4 °F 30.2 °F 38% 30.25 in 10.0 mi NW 6.9 mph - N/A   Clear
3:55 AM 55.4 °F 32.0 °F 41% 30.25 in 10.0 mi NW 8.1 mph - N/A   Clear
4:15 AM 53.6 °F 33.8 °F 47% 30.25 in 10.0 mi NW 8.1 mph - N/A   Clear
4:35 AM 53.6 °F 33.8 °F 47% 30.25 in 10.0 mi NNW 6.9 mph - N/A   Clear
4:55 AM 53.6 °F 33.8 °F 47% 30.25 in 10.0 mi NW 6.9 mph - N/A   Clear
5:15 AM 53.6 °F 32.0 °F 44% 30.25 in 10.0 mi NNW 10.4 mph - N/A   Clear
6:47 AM 55.4 °F 42.8 °F 63% 30.27 in 7.0 mi NW 9.2 mph - N/A   Scattered Clouds
7:47 AM 55.4 °F 46.4 °F 72% 30.28 in 7.0 mi NW 9.2 mph - N/A   Scattered Clouds
8:47 AM 59.0 °F 46.4 °F 63% 30.29 in 7.0 mi NW 5.8 mph - N/A   Scattered Clouds
9:47 AM 66.2 °F 48.2 °F 52% 30.29 in 7.0 mi NNW 5.8 mph - N/A   Scattered Clouds
10:47 AM 71.6 °F 48.2 °F 43% 30.28 in 7.0 mi ENE 5.8 mph - N/A   Scattered Clouds
11:47 AM 73.4 °F 44.6 °F 36% 30.25 in 7.0 mi ENE 11.5 mph - N/A   Mostly Cloudy
12:47 PM 73.4 °F 42.8 °F 33% 30.22 in 10.0 mi ESE 11.5 mph - N/A   Mostly Cloudy
1:47 PM 71.6 °F 42.8 °F 35% 30.20 in 10.0 mi East 9.2 mph - N/A   Mostly Cloudy
2:47 PM 71.6 °F 44.6 °F 38% 30.18 in 10.0 mi East 9.2 mph - N/A   Mostly Cloudy
3:47 PM 71.6 °F 44.6 °F 38% 30.17 in 10.0 mi East 6.9 mph - N/A   Scattered Clouds
5:47 PM 68.0 °F 48.2 °F 49% 30.17 in 7.0 mi Calm Calm - N/A   Partly Cloudy
6:47 PM 66.2 °F 48.2 °F 52% 30.17 in 7.0 mi Calm Calm - N/A   Partly Cloudy
7:15 PM 62.6 °F 48.2 °F 59% 30.18 in 10.0 mi Calm Calm - N/A   Scattered Clouds
7:35 PM 62.6 °F 48.2 °F 59% 30.18 in 10.0 mi Calm Calm - N/A   Clear
7:55 PM 60.8 °F 48.2 °F 63% 30.18 in 10.0 mi Calm Calm - N/A   Clear
8:15 PM 60.8 °F 46.4 °F 59% 30.18 in 10.0 mi Calm Calm - N/A   Clear
8:35 PM 59.0 °F 50.0 °F 72% 30.18 in 10.0 mi Calm Calm - N/A   Clear
8:55 PM 59.0 °F 50.0 °F 72% 30.18 in 10.0 mi Calm Calm - N/A   Clear
9:15 PM 57.2 °F 50.0 °F 77% 30.18 in 10.0 mi Calm Calm - N/A   Clear
9:35 PM 55.4 °F 50.0 °F 82% 30.18 in 10.0 mi Calm Calm - N/A   Clear
9:55 PM 55.4 °F 50.0 °F 82% 30.18 in 10.0 mi Calm Calm - N/A   Clear
10:15 PM 55.4 °F 50.0 °F 82% 30.18 in 10.0 mi Calm Calm - N/A   Clear
10:35 PM 55.4 °F 50.0 °F 82% 30.17 in 10.0 mi Calm Calm - N/A   Clear
10:55 PM 53.6 °F 50.0 °F 88% 30.17 in 10.0 mi Calm Calm - N/A   Clear
11:15 PM 55.4 °F 51.8 °F 88% 30.16 in 10.0 mi Calm Calm - N/A   Clear
11:35 PM 55.4 °F 51.8 °F 88% 30.15 in 10.0 mi Calm Calm - N/A   Clear
11:55 PM 55.4 °F 51.8 °F 88% 30.15 in 10.0 mi Calm Calm - N/A   Clear